Calgary / Springba, Alberta

12:54 PM MST on February 24, 2017 (GMT -0700)
Springbank

Weather History for CYBW - November, 2012

Change the Weather History Date:

Friday, November 23, 2012

  Actual Average Record
Temperature  
Mean Temperature 22 °F -  
Max Temperature 43 °F 29 °F 55 °F (2000)
Min Temperature 1 °F 9 °F -32 °F (1996)
Degree Days  
Heating Degree Days 43    
Moisture  
Dew Point 22 °F    
Average Humidity 72    
Maximum Humidity 93    
Minimum Humidity 49    
Precipitation  
Precipitation 0.00 in - - ()
Sea Level Pressure  
Sea Level Pressure 30.05 in    
Wind  
Wind Speed 5 mph ()    
Max Wind Speed 17 mph    
Max Gust Speed 26 mph    
Visibility 15.0 miles    
Events      
Averages and records for this station are not official NWS values.
T = Trace of Precipitation, MM = Missing Value Source: Averaged Metar Reports

Daily Weather History Graph

Daily Weather History Graph

Search for Another Location

Airport or City:

Trip Planner

Search our weather history database for the weather conditions in past years. The results will help you decide how hot, cold, wet, or windy it might be!

Date:

Astronomy

Nov. 23, 2012 Rise Set
Actual Time 8:08 AM MST 4:39 PM MST
Civil Twilight 7:30 AM MST 5:17 PM MST
Nautical Twilight 6:49 AM MST 5:58 PM MST
Astronomical Twilight 6:09 AM MST 6:37 PM MST
Moon 2:19 PM MST (11/23) 3:04 AM MST (11/23)
Length of Visible Light 9h 46m
Length of Day
8h 31m
Waxing Gibbous, 80% of the Moon is Illuminated
Nov 23
Waxing Gibbous
Nov 28
Full
Dec 6
Last Quarter
Dec 13
New
Dec 19
First Quarter

Hourly Weather History & Observations

Time (MST) Temp. Windchill Dew Point Humidity Pressure Visibility Wind Dir Wind Speed Gust Speed Precip Events Conditions
5:00 AM 17 °F - 14 °F 81% 30.29 in 15 mi Calm Calm - -   Overcast
5:00 AM 15.8 °F 8.6 °F 14.0 °F 93% 30.29 in 15.0 mi Variable 4.6 mph - N/A   Overcast
6:00 AM 19.4 °F 14.3 °F 15.8 °F 86% 30.25 in 15.0 mi SSE 3.5 mph - N/A   Overcast
7:00 AM 17.6 °F - 15.8 °F 93% 30.22 in 15.0 mi Calm Calm - N/A   Overcast
8:00 AM 17.6 °F 10.7 °F 15.8 °F 93% 30.18 in 30.0 mi WNW 4.6 mph - N/A   Overcast
9:00 AM 21.2 °F 12.6 °F 17.6 °F 86% 30.17 in 30.0 mi NNW 6.9 mph - N/A   Overcast
10:00 AM 26.6 °F 22.6 °F 21.2 °F 80% 30.13 in 30.0 mi NNW 3.5 mph - N/A   Overcast
11:00 AM 29 °F - 25 °F 77% 30.09 in 28 mi SW 4.6 mph - -   Overcast
11:00 AM 28.4 °F 23.3 °F 24.8 °F 86% 30.09 in 30.0 mi SW 4.6 mph - N/A   Overcast
12:00 PM 37.4 °F 31.4 °F 26.6 °F 65% 30.05 in 30.0 mi West 8.1 mph - N/A   Overcast
12:07 PM 35.6 °F 31.7 °F 26.6 °F 70% 30.05 in 30.0 mi North 4.6 mph - N/A   Overcast
1:00 PM 37.4 °F 32.1 °F 28.4 °F 70% 29.99 in 30.0 mi SSW 6.9 mph - N/A   Overcast
2:00 PM 39.2 °F - 28.4 °F 65% 29.98 in 30.0 mi Variable 2.3 mph - N/A   Mostly Cloudy
2:19 PM 35.6 °F - 26.6 °F 70% 29.99 in 30.0 mi East 2.3 mph - N/A   Mostly Cloudy
3:00 PM 41.0 °F 36.4 °F 26.6 °F 57% 29.97 in 30.0 mi SW 6.9 mph - N/A   Mostly Cloudy
4:00 PM 42.8 °F 34.8 °F 24.8 °F 49% 29.97 in 30.0 mi WNW 17.3 mph 26.5 mph N/A   Mostly Cloudy
5:00 PM 37 °F - 25 °F 49% 29.97 in 28 mi WNW 13.8 mph - -   Scattered Clouds
5:00 PM 37.4 °F 29.3 °F 24.8 °F 60% 29.96 in 30.0 mi WNW 12.7 mph 20.7 mph N/A   Mostly Cloudy
5:35 PM 35.6 °F 28.0 °F 24.8 °F 65% 29.95 in 15.0 mi West 10.4 mph - N/A   Mostly Cloudy
6:00 PM 33.8 °F 25.3 °F 23.0 °F 65% 29.95 in 15.0 mi WNW 11.5 mph 17.3 mph N/A   Scattered Clouds
7:00 PM 33.8 °F 23.9 °F 21.2 °F 60% 29.95 in 15.0 mi NW 15.0 mph - N/A   Partly Cloudy
8:00 PM 28.4 °F 18.5 °F 19.4 °F 69% 29.96 in 15.0 mi NW 11.5 mph - N/A   Partly Cloudy
9:00 PM 30.2 °F 25.4 °F 21.2 °F 69% 29.96 in 15.0 mi SW 4.6 mph - N/A   Partly Cloudy
10:00 PM 24.8 °F 19.1 °F 15.8 °F 69% 29.78 in 15.0 mi West 4.6 mph - N/A   Partly Cloudy